• In Romania
  • List of Countries
  • For 7 days
  • Water Temperature
  • Satellite Maps
  • Weather Map
  • Weather Widgets
  • user-avatar
    Login

    Hourly Weather Kuzneckoe

    Today, 21 July, Saturday

    Time Temperature Precipitation Wind Pressure Humidity
    00:00 +19°C° 0 mm 4 mps 740 mmHg 92%
    01:00 +19°C° 0 mm 4 mps 740 mmHg 94%
    02:00 +19°C° 0 mm 3 mps 740 mmHg 96%
    03:00 +19°C° 0.1 mm 3 mps 740 mmHg 96%
    04:00 +19°C° 0.1 mm 4 mps 740 mmHg 96%
    05:00 +19°C° 0.1 mm 4 mps 740 mmHg 95%
    06:00 +20°C° 0.2 mm 4 mps 740 mmHg 94%
    07:00 +20°C° 0.2 mm 4 mps 741 mmHg 94%
    08:00 +20°C° 0 mm 5 mps 741 mmHg 92%
    09:00 +20°C° 0.1 mm 4 mps 741 mmHg 89%
    10:00 +21°C° 0.1 mm 4 mps 741 mmHg 86%
    11:00 +22°C° 0.1 mm 4 mps 741 mmHg 83%
    12:00 +23°C° 0.1 mm 4 mps 741 mmHg 78%
    13:00 +25°C° 0.1 mm 4 mps 741 mmHg 73%
    14:00 +27°C° 0.1 mm 4 mps 741 mmHg 68%
    15:00 +26°C° 0.4 mm 4 mps 741 mmHg 70%
    16:00 +26°C° 0.4 mm 4 mps 741 mmHg 72%
    17:00 +26°C° 0.4 mm 4 mps 741 mmHg 74%
    18:00 +25°C° 0.8 mm 4 mps 741 mmHg 79%
    19:00 +22°C° 0.8 mm 3 mps 741 mmHg 83%
    20:00 +21°C° 0.8 mm 3 mps 741 mmHg 87%
    21:00 +21°C° 0.7 mm 3 mps 741 mmHg 89%
    22:00 +20°C° 0.7 mm 3 mps 741 mmHg 91%
    23:00 +20°C° 0.7 mm 3 mps 741 mmHg 93%

    Tomorrow, 22 July, Sunday

    Time Temperature Precipitation Wind Pressure Humidity
    00:00 +19°C° 0 mm 3 mps 742 mmHg 94%
    01:00 +19°C° 0 mm 3 mps 742 mmHg 95%
    02:00 +19°C° 0 mm 3 mps 742 mmHg 96%
    03:00 +19°C° 0 mm 3 mps 742 mmHg 95%
    04:00 +19°C° 0 mm 3 mps 742 mmHg 94%
    05:00 +19°C° 0 mm 3 mps 742 mmHg 94%
    06:00 +19°C° 0 mm 3 mps 742 mmHg 91%
    07:00 +19°C° 0 mm 4 mps 743 mmHg 89%
    08:00 +20°C° 0 mm 4 mps 743 mmHg 86%
    09:00 +20°C° 0 mm 4 mps 743 mmHg 85%
    10:00 +21°C° 0 mm 4 mps 743 mmHg 83%
    11:00 +21°C° 0 mm 4 mps 743 mmHg 81%
    12:00 +21°C° 0 mm 4 mps 743 mmHg 81%
    13:00 +21°C° 0 mm 4 mps 743 mmHg 81%
    14:00 +21°C° 0 mm 3 mps 743 mmHg 81%
    15:00 +21°C° 0 mm 3 mps 743 mmHg 80%
    16:00 +22°C° 0 mm 3 mps 743 mmHg 79%
    17:00 +22°C° 0 mm 3 mps 743 mmHg 78%
    18:00 +21°C° 0 mm 2 mps 743 mmHg 82%
    19:00 +20°C° 0 mm 2 mps 743 mmHg 87%
    20:00 +19°C° 0 mm 2 mps 743 mmHg 91%
    21:00 +19°C° 0 mm 2 mps 743 mmHg 92%
    22:00 +18°C° 0 mm 2 mps 743 mmHg 93%
    23:00 +18°C° 0 mm 2 mps 744 mmHg 94%

    Day after tomorrow, 23 July, Monday

    Time Temperature Precipitation Wind Pressure Humidity
    00:00 +17°C° 0 mm 2 mps 744 mmHg 94%
    01:00 +17°C° 0 mm 2 mps 744 mmHg 95%
    02:00 +16°C° 0 mm 2 mps 744 mmHg 95%
    03:00 +16°C° 0 mm 3 mps 744 mmHg 94%
    04:00 +17°C° 0 mm 3 mps 744 mmHg 93%
    05:00 +17°C° 0 mm 3 mps 745 mmHg 91%
    06:00 +18°C° 0 mm 3 mps 745 mmHg 85%
    07:00 +19°C° 0 mm 3 mps 745 mmHg 78%
    08:00 +20°C° 0 mm 4 mps 745 mmHg 72%
    09:00 +21°C° 0 mm 4 mps 745 mmHg 68%
    10:00 +22°C° 0 mm 4 mps 745 mmHg 63%
    11:00 +23°C° 0 mm 4 mps 745 mmHg 59%
    12:00 +23°C° 0 mm 4 mps 745 mmHg 60%
    13:00 +23°C° 0 mm 4 mps 744 mmHg 62%
    14:00 +23°C° 0 mm 4 mps 744 mmHg 64%
    15:00 +24°C° 0 mm 3 mps 744 mmHg 65%
    16:00 +22°C° 0 mm 3 mps 744 mmHg 67%
    17:00 +22°C° 0 mm 3 mps 744 mmHg 69%
    18:00 +21°C° 0 mm 3 mps 744 mmHg 73%
    19:00 +20°C° 0 mm 2 mps 745 mmHg 78%
    20:00 +19°C° 0 mm 2 mps 745 mmHg 82%
    21:00 +18°C° 0 mm 2 mps 745 mmHg 83%
    22:00 +17°C° 0 mm 2 mps 745 mmHg 84%
    23:00 +17°C° 0 mm 2 mps 745 mmHg 86%

    24 July, Tuesday

    Time Temperature Precipitation Wind Pressure Humidity
    00:00 +16°C° 0 mm 2 mps 745 mmHg 88%
    01:00 +15°C° 0 mm 2 mps 745 mmHg 90%
    02:00 +15°C° 0 mm 2 mps 745 mmHg 92%
    03:00 +14°C° 0 mm 3 mps 745 mmHg 89%
    04:00 +16°C° 0 mm 3 mps 746 mmHg 86%
    05:00 +16°C° 0 mm 3 mps 746 mmHg 84%
    06:00 +16°C° 0 mm 3 mps 746 mmHg 82%
    07:00 +17°C° 0 mm 4 mps 746 mmHg 80%
    08:00 +18°C° 0 mm 4 mps 746 mmHg 78%
    09:00 +19°C° 0 mm 4 mps 746 mmHg 74%
    10:00 +20°C° 0 mm 4 mps 746 mmHg 71%
    11:00 +21°C° 0 mm 4 mps 746 mmHg 68%
    12:00 +22°C° 0 mm 4 mps 746 mmHg 65%
    13:00 +23°C° 0 mm 4 mps 746 mmHg 63%
    14:00 +26°C° 0 mm 4 mps 746 mmHg 61%
    15:00 +25°C° 0 mm 4 mps 746 mmHg 63%
    16:00 +25°C° 0 mm 3 mps 746 mmHg 66%
    17:00 +25°C° 0 mm 3 mps 746 mmHg 69%
    18:00 +24°C° 0 mm 3 mps 746 mmHg 73%
    19:00 +22°C° 0 mm 3 mps 746 mmHg 77%
    20:00 +21°C° 0 mm 3 mps 747 mmHg 81%
    21:00 +20°C° 0.1 mm 3 mps 747 mmHg 84%
    22:00 +19°C° 0.1 mm 3 mps 747 mmHg 88%
    23:00 +19°C° 0.1 mm 3 mps 747 mmHg 91%

    25 July, Wednesday

    Time Temperature Precipitation Wind Pressure Humidity
    00:00 +18°C° 0.3 mm 3 mps 747 mmHg 93%
    01:00 +18°C° 0.3 mm 2 mps 747 mmHg 95%
    02:00 +17°C° 0.3 mm 2 mps 747 mmHg 96%
    03:00 +17°C° 0.2 mm 3 mps 748 mmHg 96%
    04:00 +18°C° 0.2 mm 3 mps 748 mmHg 96%
    05:00 +18°C° 0.2 mm 3 mps 748 mmHg 95%
    06:00 +19°C° 0 mm 3 mps 748 mmHg 91%
    07:00 +21°C° 0 mm 2 mps 749 mmHg 87%
    08:00 +23°C° 0 mm 2 mps 749 mmHg 83%
    09:00 +24°C° 0 mm 3 mps 749 mmHg 76%
    10:00 +26°C° 0 mm 3 mps 749 mmHg 69%
    11:00 +27°C° 0 mm 3 mps 749 mmHg 63%
    12:00 +28°C° 0 mm 3 mps 749 mmHg 58%
    13:00 +29°C° 0 mm 4 mps 749 mmHg 54%
    14:00 +29°C° 0 mm 4 mps 749 mmHg 50%
    15:00 +29°C° 0 mm 4 mps 749 mmHg 51%
    16:00 +29°C° 0 mm 4 mps 749 mmHg 53%
    17:00 +28°C° 0 mm 3 mps 749 mmHg 54%
    18:00 +26°C° 0 mm 3 mps 749 mmHg 62%
    19:00 +24°C° 0 mm 3 mps 749 mmHg 69%
    20:00 +21°C° 0 mm 2 mps 749 mmHg 76%
    21:00 +21°C° 0 mm 2 mps 750 mmHg 79%
    22:00 +20°C° 0 mm 2 mps 750 mmHg 82%
    23:00 +19°C° 0 mm 2 mps 750 mmHg 85%

    26 July, Thursday

    Time Temperature Precipitation Wind Pressure Humidity
    00:00 +18°C° 0 mm 2 mps 750 mmHg 87%
    01:00 +18°C° 0 mm 2 mps 750 mmHg 89%
    02:00 +17°C° 0 mm 2 mps 750 mmHg 91%
    03:00 +18°C° 0 mm 2 mps 751 mmHg 88%
    04:00 +18°C° 0 mm 2 mps 751 mmHg 85%
    05:00 +18°C° 0 mm 2 mps 751 mmHg 83%
    06:00 +20°C° 0 mm 2 mps 751 mmHg 76%
    07:00 +22°C° 0 mm 3 mps 751 mmHg 70%
    08:00 +25°C° 0 mm 3 mps 752 mmHg 64%
    09:00 +27°C° 0 mm 3 mps 752 mmHg 59%
    10:00 +28°C° 0 mm 4 mps 752 mmHg 54%
    11:00 +29°C° 0 mm 4 mps 752 mmHg 49%
    12:00 +30°C° 0 mm 4 mps 751 mmHg 48%
    13:00 +30°C° 0 mm 4 mps 751 mmHg 47%
    14:00 +30°C° 0 mm 4 mps 751 mmHg 46%
    15:00 +30°C° 0 mm 3 mps 751 mmHg 49%
    16:00 +30°C° 0 mm 3 mps 751 mmHg 51%
    17:00 +29°C° 0 mm 3 mps 751 mmHg 54%
    18:00 +27°C° 0 mm 3 mps 751 mmHg 61%
    19:00 +26°C° 0 mm 2 mps 751 mmHg 68%
    20:00 +24°C° 0 mm 2 mps 752 mmHg 75%
    21:00 +23°C° 0 mm 2 mps 752 mmHg 78%
    22:00 +21°C° 0 mm 2 mps 752 mmHg 80%
    23:00 +20°C° 0 mm 2 mps 752 mmHg 83%
    Show more